Tracking 19908 objects as of 18-Oct-2019
HD Live streaming from Space Station
objects crossing your sky now

SL-8 R/B

Track SL-8 R/B now!
10-day predictions


NORAD ID: 6993
Int'l Code: 1973-104J
Perigee: 1,482.6 km
Apogee: 1,627.7 km
Inclination: 74.0 °
Period: 117.0 minutes
Semi major axis: 7926 km
RCS: 6.4131 m2 (large)
Launch date: December 19, 1973
Source: Commonwealth of Independent States (former USSR) (CIS)
Launch site: PLESETSK MISSILE AND SPACE COMPLEX (PKMTR)

Note: This is a ROCKET BODY
aabbcc
Your satellite tracking list
Your tracking list is empty




NASA's NSSDC Master Catalog

Two Line Element Set (TLE):
1  6993U 73104J   19290.82324859 -.00000061 +00000-0 -39065-3 0  9999
2  6993 074.0342 056.5115 0091497 132.6115 034.8333 12.30300162058073
Source of the keplerian elements: AFSPC